Regional Weather Roundup
Issued by NWS

Home | Current Version | Previous Version | Text Only | Print | Product List | Glossary Off
Versions: 1 2 3 4 5 6 7 8 9 10 11 12 13 14 15 16 17 18 19 20 21 22 23 24 25 26 27 28 29 30 31 32 33 34 35 36 37 38 39 40 41 42 43 44 45 46 47 48 49 50

000
ASUS43 KMPX 280510
RWRMN
WEATHER ROUNDUP FOR MINNESOTA
NATIONAL WEATHER SERVICE TWIN CITIES/CHANHASSEN MN
1100 PM CST TUE JAN 27 2015


NOTE: "FAIR" INDICATES FEW OR NO CLOUDS BELOW 12,000 FEET WITH NO
SIGNIFICANT WEATHER AND/OR OBSTRUCTIONS TO VISIBILITY. N/A MEANS
CURRENT SKY AND/OR WEATHER CONDITIONS ARE NOT AVAILABLE.

MNZ060>063-068>070-280600-
   Twin Cities Metro

CITY           SKY/WX    TMP DP  RH WIND       PRES   REMARKS
TWIN CITIES    CLOUDY    31  26  82 SE10      30.11F WCI  22
ST PAUL        CLOUDY    30  26  85 SE10      30.14S WCI  21
CRYSTAL        CLOUDY    32  26  78 S10       30.10F WCI  24
BLAINE         CLOUDY    32  28  86 SE12      30.10F WCI  23
LAKEVILLE      CLOUDY    28  27  93 SE8       30.11S WCI  20
EDEN PRAIRIE   CLOUDY    32  27  81 S12       30.10S WCI  23
SOUTH ST PAUL  CLOUDY    31  26  82 S9        30.12F WCI  23
LAKE ELMO      CLOUDY    30  27  86 SE10      30.13F WCI  21
$$
MNZ001>005-007-008-013>017-022>024-027-028-280600-
   Northwest Minnesota

CITY           SKY/WX    TMP DP  RH WIND       PRES   REMARKS
BEMIDJI        MOCLDY    29  26  87 SE10      29.97S WCI  20
HALLOCK        CLOUDY    32  30  93 S17       29.90F WCI  21
ROSEAU         CLOUDY    30  25  80 S12       29.93F WCI  21
WARROAD        MOCLDY    28  25  86 SE6       29.95S WCI  22
THIEF RVR FALL CLOUDY    30  28  93 S13       29.94S WCI  20
CROOKSTON      CLOUDY    32  30  93 S15       29.93F WCI  22
FOSSTON        CLOUDY    27  25  93 SE7       29.94F WCI  19
DETROIT LAKES  CLOUDY    32  30  93 S17       29.95F WCI  21
MOORHEAD       CLOUDY    34  34 100 SE20G29   29.93F WCI  22
PARK RAPIDS    CLOUDY    31  27  85 S14       29.98F WCI  21
MAHNOMEN       MOCLDY    30  27  89 S8        29.94F WCI  22
$$
MNZ006-009>011-018-025>026-280600-
   North Central Minnesota

CITY           SKY/WX    TMP DP  RH WIND       PRES   REMARKS
BAUDETTE       MOCLDY    29  23  78 SE6       29.96F WCI  23
FLAG ISLAND    CLOUDY    30  27  86 SE13      29.96S WCI  20
INTL FALLS     CLOUDY    29  25  85 SE5       30.00F WCI  24
WASKISH        MOCLDY    28  27  93 SE8       29.97F WCI  20
BIG FORK       MOCLDY    28  23  80 S9        30.01F WCI  20
LONGVILLE      CLOUDY    30  27  86 S10G20    30.01F WCI  21
GRAND RAPIDS   CLOUDY    28  23  80 S13       30.03S WCI  18
CRANE LAKE     CLOUDY    27  25  93 S5        30.06F WCI  21
ORR            CLOUDY    27  21  80 SE6       30.00F WCI  20
COOK           MOCLDY    27  23  86 S3        30.04S
WALKER         CLOUDY    30  26  85 SE12      29.99F WCI  20
$$
MNZ012-019>021-037-280600-
   Northeast Minnesota

CITY           SKY/WX    TMP DP  RH WIND       PRES   REMARKS
DULUTH         CLOUDY    27  22  81 S9        30.08S WCI  18
ELY            CLOUDY    27  23  86 S3        30.06S
HIBBING        CLOUDY    28  21  75 S7        30.04F WCI  21
EVELETH        MOCLDY    28  25  86 S7        30.06S WCI  21
DULUTH HARBOR  CLOUDY    30  25  80 CALM      30.14S
TWO HARBORS    CLOUDY    30  25  80 S3        30.09F
SILVER BAY     CLOUDY    28  25  86 S3        30.09F
GRAND MARAIS     N/A     32  25  75 SW13      30.14F WCI  22
G MARAIS ARPRT   N/A     23  19  86 S5        30.07F WCI  17
$$
MNZ029>031-032-039>041-046>048-054>057-064-280600-
   West Central Minnesota

CITY           SKY/WX    TMP DP  RH WIND       PRES   REMARKS
FERGUS FALLS   CLOUDY    32  30  93 SE20G25   29.98F WCI  20
WHEATON        PTCLDY    30  30 100 SE15      29.95F WCI  19
MORRIS         CLOUDY    34  32  93 SE20      29.96F FOG     WCI  22
ALEXANDRIA     CLOUDY    32  29  88 SE14      30.01S WCI  22
ELBOW LAKE     CLOUDY    32  31  95 SE17      29.96F WCI  21
WADENA         CLOUDY    30  27  86 S15       30.00S WCI  19
GLENWOOD       CLOUDY    32  30  93 SE14      30.01F WCI  22
APPLETON       FAIR      34  32  93 SE13      29.98F WCI  25
BENSON         PTCLDY    34  30  86 S13G22    30.00F WCI  25
ORTONVILLE     PTCLDY    32  30  93 SE14      29.94F WCI  22
MADISON        CLEAR     37  36  93 SE15      29.96F
WILLMAR        CLOUDY    34  30  86 SE17      30.04S WCI  23
$$
MNZ033>034-036-042>043-049>051-058-059-280600-
   Central Minnesota

CITY           SKY/WX    TMP DP  RH WIND       PRES   REMARKS
ST CLOUD       CLOUDY    31  26  82 S12       30.08F WCI  22
SAUK CENTRE    CLOUDY    32  29  90 SE12      30.04S WCI  23
PAYNESVILLE    CLOUDY    30  28  94 E12G18    30.05F WCI  20
AITKIN         CLOUDY    32  25  74 S9        30.04F WCI  24
PINE RIVER     CLOUDY    30  27  86 SE10      30.05F WCI  21
BRAINERD       CLOUDY    30  25  81 S12       30.05F WCI  20
STAPLES        CLOUDY    30  27  86 S10       30.02S WCI  21
LONG PRAIRIE   CLOUDY    32  28  86 SE17      30.03F WCI  21
LITTLE FALLS   CLOUDY    32  27  80 SE9G20    30.06S WCI  24
LITCHFIELD     CLOUDY    34  32  93 SE8       30.06F WCI  27
BUFFALO        CLOUDY    32  27  84 SE6       30.11S WCI  26
MAPLE LAKE     CLOUDY    32  30  92 SE6       30.10R WCI  27
$$
MNZ037-044-045-052-053-280600-
   East Central Minnesota

CITY           SKY/WX    TMP DP  RH WIND       PRES   REMARKS
PRINCETON      CLOUDY    32  27  80 SE9       30.10F WCI  24
MORA           CLOUDY    30  25  80 S6        30.11F WCI  24
CAMBRIDGE      CLOUDY    30  23  74 S8        30.09F WCI  23
RUSH CITY      CLOUDY    29  24  84 SE9       30.12S WCI  20
MOOSE LAKE     CLOUDY    30  25  80 S6        30.07F WCI  24
HINCKLEY       CLOUDY    30  27  86 S10       30.11F WCI  21
CLOQUET        CLOUDY    27  21  80 SE6       30.08S WCI  20
MCGREGOR       CLOUDY    30  27  86 S8        30.07S WCI  23
$$
MNZ071>073-080-081-089-090-097-098-280600-
   Southwest Minnesota

CITY           SKY/WX    TMP DP  RH WIND       PRES   REMARKS
MONTEVIDEO     CLEAR     32  32 100 S13       30.00F WCI  22
GRANITE FALLS  CLEAR     32  31  95 SE15G22   30.01F WCI  22
CANBY          CLEAR     33  32  98 SE9       29.95F FOG     WCI  25
MARSHALL       CLEAR     34  28  80 SE12      29.99F WCI  25
REDWOOD FALLS  CLOUDY    33  31  92 SE17      30.03S WCI  22
OLIVIA         CLOUDY    32  32 100 SE15      30.03S WCI  22
PIPESTONE      PTCLDY    36  32  87 S14       29.94S
WINDOM         PTCLDY    32  30  93 SE12      30.01S WCI  23
WORTHINGTON    CLEAR     34  28  80 S13G18    29.99S WCI  25
JACKSON        MOCLDY    32  32 100 SE14      30.03S WCI  22
TRACY          CLEAR     35  32  91 S10G17    29.98F WCI  27
SLAYTON        CLEAR     34  31  92 S15       29.97F WCI  24
$$
MNZ065>067-074>077-082>085-091>093-280600-
   South Central Minnesota

CITY           SKY/WX    TMP DP  RH WIND       PRES   REMARKS
MANKATO        CLOUDY    32  27  80 SE14      30.08F WCI  22
NEW ULM        CLOUDY    32  30  93 S13G18    30.06S WCI  22
ST JAMES       CLOUDY    34  30  86 SE15      30.07S WCI  24
FAIRMONT       CLOUDY    32  27  80 S16G25    30.06S WCI  21
GLENCOE        CLOUDY    33  31  94 SE10      30.08S WCI  25
FARIBAULT      CLOUDY    30  28  93 SE9       30.11S WCI  22
OWATONNA       CLOUDY    30  27  86 SE12      30.10F WCI  21
WASECA         CLOUDY    32  30  93 SE12      30.11S WCI  23
ALBERT LEA     CLOUDY    28  28 100 S12       30.11R WCI  18
$$
MNZ078>079-086>088-094>096-280600-
   Southeast Minnesota

CITY           SKY/WX    TMP DP  RH WIND       PRES   REMARKS
ROCHESTER      CLOUDY    28  24  85 S14       30.13F WCI  17
RED WING       CLOUDY    30  25  80 S6G16     30.14F WCI  24
STANTON        CLOUDY    32  27  83 SE7       30.11S WCI  25
DODGE CENTER   CLOUDY    28  27  93 S13       30.11S WCI  18
WINONA         CLOUDY    30  23  74 SE6       30.20F WCI  24
AUSTIN         CLOUDY    28  27  93 SE10      30.12S WCI  19
PRESTON        CLOUDY    27  23  87 S12       30.14F WCI  16
$$
ABBREVIATIONS USED IN REMARKS
   TC - TEMPERATURES IN CELSIUS
  WCI - WIND CHILL INDEX
   HX - HEAT INDEX
  VSB - VISIBILITY
$$


USA.gov is the U.S. government's official web portal to all federal, state and local government web resources and services.